FREEPORT, TX NM South of Freeport, TX (42019)

Conditions for Wednesday

Daily
Weekly
Monthly
Marine Data Graph
Ad Blocker Enabled

Marine & Boating Location Search

Enter a coastal zip code for marine weather.

General Information

Location: 27.907 North -95.352 West
Buoy Type: 3-meter discus buoy
Buoy Hull: 3D65
Payload: ARES payload
Owned by: NDBC
Windspeed: Measured by obtained from anemometer
Sea Surface: Measured by Intake

Weather and Wave Data

Time Temp Humidity Wind Dominant Wave Wind Wave Wave Swell Pressure
  Air
(°F)
Water
(°F)
  Dir Speed
(kts)
Speed
(mph)
Period
(sec)
Height
(ft)
Range
(ft)
Period
(sec)
Height
(ft)
Range
(ft)
Period
(sec)
Height
(ft)
Range
(ft)
Atmo.
(in)
Tend.
(in)
20:50 74 80 46 South 7.8 8.9 7 1.64 exactly 1.6 4 1.64 0.82 - 2.46 7 1.64 0.82 - 2.46 30.04 +0.02
21:50 74 80 46 South 9.7 11.2 5 1.64 exactly 1.6 4 1.64 0.82 - 2.46 5 1.64 0.82 - 2.46 30.05 +0.02
22:50 74 80 47 South 9.7 11.2 6 1.64 exactly 1.6 3 1.64 0.82 - 2.46 6 1.64 0.82 - 2.46 30.05 +0.01
23:50 74 80 48 South 9.7 11.2 5 1.64 exactly 1.6 3 1.64 0.82 - 2.46 5 1.64 0.82 - 2.46 30.04 -
00:50 74 80 50 South 9.7 11.2 3 1.64 exactly 1.6 3 1.64 0.82 - 2.46 6 1.64 0.82 - 2.46 30.03 -0.01
01:50 75 80 49 SSW 9.7 11.2 3 1.64 exactly 1.6 3 1.64 0.82 - 2.46 7 1.64 0.82 - 2.46 30.02 -0.02
02:50 75 80 53 SSW 7.8 8.9 3 1.64 exactly 1.6 3 1.64 0.82 - 2.46 8 1.64 0.82 - 2.46 30.01 -0.03
03:50 76 79 52 SW 9.7 11.2 3 1.64 exactly 1.6 3 1.64 0.82 - 2.46 6 1.64 0.82 - 2.46 30.01 -0.02
04:50 76 79 51 SW 7.8 8.9 3 1.64 exactly 1.6 3 1.64 0.82 - 2.46 7 1.64 0.82 - 2.46 30.01 -0.01
05:50 76 79 53 SW 7.8 8.9 4 1.64 exactly 1.6 4 1.64 0.82 - 2.46 5 1.64 0.82 - 2.46 30.01 -
06:50 76 79 57 South 7.8 8.9 4 1.64 exactly 1.6 4 1.64 0.82 - 2.46 5 1.64 0.82 - 2.46 30.01 -
07:50 77 79 56 South 7.8 8.9 4 1.64 exactly 1.6 4 1.64 0.82 - 2.46 4 1.64 0.82 - 2.46 30.02 +0.01
08:50 77 78 51 SSW 5.8 6.7 4 1.64 exactly 1.6 4 1.64 0.82 - 2.46 7 1.64 0.82 - 2.46 30.04 +0.03
10:50 78 79 50 South 3.9 4.5 4 1.64 exactly 1.6 3 1.64 0.82 - 2.46 4 1.64 0.82 - 2.46 30.06 +0.04
11:50 78 79 52 SSE 1.9 2.2 4 1.64 exactly 1.6 3 1.64 0.82 - 2.46 4 1.64 0.82 - 2.46 30.07 +0.03
12:50 78 80 53 SSW 1.9 2.2 4 1.64 exactly 1.6 4 1.64 0.82 - 2.46 6 1.64 0.82 - 2.46 30.06 +0.01
13:50 78 80 51 WSW 1.9 2.2 4 1.64 exactly 1.6 4 1.64 0.82 - 2.46 6 1.64 0.82 - 2.46 30.04 -0.03
14:50 79 80 47 WSW 1.9 2.2 4 1.64 exactly 1.6 4 1.64 0.82 - 2.46 4 1.64 0.82 - 2.46 30.01 -0.05
15:50 80 81 43 WSW 1.9 2.2 4 1.31 exactly 1.3 4 1.64 0.82 - 2.46 4 1.64 0.82 - 2.46 29.99 -0.06
16:50 79 80 44 South 5.8 6.7 4 1.64 exactly 1.6 4 1.64 0.82 - 2.46 4 1.64 0.82 - 2.46 29.99 -0.05
17:50 78 80 47 South 3.9 4.5 5 1.64 exactly 1.6 4 1.64 0.82 - 2.46 5 1.64 0.82 - 2.46 30.00 -0.02
18:50 78 80 53 SSW 3.9 4.5 4 1.31 exactly 1.3 3 1.64 0.82 - 2.46 4 1.64 0.82 - 2.46 30.00 +0.01
19:50 78 80 56 SSW 5.8 6.7 4 1.64 exactly 1.6 3 1.64 0.82 - 2.46 4 1.64 0.82 - 2.46 30.01 +0.02
20:50 78 79 57 South 7.8 8.9 4 1.31 exactly 1.3 4 1.64 0.82 - 2.46 4 1.64 0.82 - 2.46 30.01 +0.02
21:50 78 79 58 South 9.7 11.2 4 1.64 exactly 1.6 4 1.64 0.82 - 2.46 - - - 30.03 +0.02
22:50 78 79 59 South 9.7 11.2 4 1.31 exactly 1.3 4 1.64 0.82 - 2.46 5 1.64 0.82 - 2.46 30.04 +0.03
23:50 78 79 60 SSW 9.7 11.2 4 1.31 exactly 1.3 4 1.64 0.82 - 2.46 4 1.64 0.82 - 2.46 30.04 +0.02
00:50 78 80 61 South 9.7 11.2 4 1.31 exactly 1.3 4 1.64 0.82 - 2.46 - - - 30.04 +0.01
01:50 78 80 63 South 9.7 11.2 4 1.31 exactly 1.3 4 1.64 0.82 - 2.46 - - - 30.04 -
02:50 78 80 65 SW 9.7 11.2 5 1.64 exactly 1.6 5 1.64 0.82 - 2.46 - - - 30.03 -0.01
03:50 78 79 67 SSW 9.7 11.2 4 1.64 exactly 1.6 4 1.64 0.82 - 2.46 5 1.64 0.82 - 2.46 30.02 -0.01

Detailed Wave Spectra

Time Water Depth Wave Height Spectral Peak Period Average Wave Period Sampling Interval Wave Record
20:00 259 ft 1.64 ft 5.3 sec 4.1 sec 0.6 sec 2400 sec
21:00 259 ft 1.71 ft 6.7 sec 4.0 sec 0.6 sec 2400 sec
22:00 259 ft 1.51 ft 5.0 sec 3.6 sec 0.6 sec 2400 sec
23:00 259 ft 1.64 ft 5.9 sec 3.5 sec 0.6 sec 2400 sec
00:00 259 ft 1.51 ft 5.3 sec 3.6 sec 0.6 sec 2400 sec
01:00 259 ft 1.64 ft 3.0 sec 3.5 sec 0.6 sec 2400 sec
02:00 259 ft 1.61 ft 3.1 sec 3.5 sec 0.6 sec 2400 sec
03:00 259 ft 1.64 ft 3.4 sec 3.6 sec 0.6 sec 2400 sec
04:00 259 ft 1.61 ft 3.3 sec 3.5 sec 0.6 sec 2400 sec
05:00 259 ft 1.61 ft 3.3 sec 3.6 sec 0.6 sec 2400 sec
06:00 259 ft 1.54 ft 3.6 sec 3.6 sec 0.6 sec 2400 sec
07:00 259 ft 1.48 ft 3.8 sec 3.8 sec 0.6 sec 2400 sec
08:00 259 ft 1.64 ft 3.8 sec 3.8 sec 0.6 sec 2400 sec
09:00 259 ft 1.77 ft 3.8 sec 3.8 sec 0.6 sec 2400 sec
10:00 259 ft 1.77 ft 4.2 sec 3.9 sec 0.6 sec 2400 sec
11:00 259 ft 1.61 ft 4.2 sec 3.9 sec 0.6 sec 2400 sec
12:00 259 ft 1.61 ft 4.2 sec 3.8 sec 0.6 sec 2400 sec
14:00 259 ft 1.57 ft 4.0 sec 3.9 sec 0.6 sec 2400 sec
15:00 259 ft 1.57 ft 3.7 sec 3.9 sec 0.6 sec 2400 sec
16:00 259 ft 1.48 ft 4.0 sec 3.8 sec 0.6 sec 2400 sec
17:00 259 ft 1.51 ft 4.3 sec 3.8 sec 0.6 sec 2400 sec
18:00 259 ft 1.51 ft 4.5 sec 4.0 sec 0.6 sec 2400 sec
19:00 259 ft 1.44 ft 4.3 sec 3.9 sec 0.6 sec 2400 sec
21:00 259 ft 1.41 ft 3.7 sec 3.9 sec 0.6 sec 2400 sec
22:00 259 ft 1.48 ft 4.3 sec 4.0 sec 0.6 sec 2400 sec
23:00 259 ft 1.44 ft 4.2 sec 3.7 sec 0.6 sec 2400 sec
00:00 259 ft 1.38 ft 4.3 sec 3.6 sec 0.6 sec 2400 sec
01:00 259 ft 1.44 ft 4.3 sec 3.6 sec 0.6 sec 2400 sec
02:00 259 ft 1.38 ft 4.2 sec 3.6 sec 0.6 sec 2400 sec
03:00 259 ft 1.57 ft 4.8 sec 3.5 sec 0.6 sec 2400 sec